Time,TemperatureF,DewpointF,PressureIn,WindDirection,WindDirectionDegrees,WindSpeedMPH,WindSpeedGustMPH,Humidity,HourlyPrecipIn,Conditions,Clouds,dailyrainin,SoftwareType,DateUTC
2013-06-01 00:02:00,69.0,65.0,-100.00,West,260,4.0,9.0,85,0.00,,,-99.99,,2013-06-01 05:02:00,
2013-06-01 00:12:00,69.0,65.0,-100.00,WNW,290,7.0,10.0,85,0.00,,,-99.99,,2013-06-01 05:12:00,
2013-06-01 00:22:00,70.0,65.0,-100.00,West,270,7.0,12.0,85,0.00,,,-99.99,,2013-06-01 05:22:00,
2013-06-01 00:32:00,70.0,65.0,-100.00,WNW,285,6.0,11.0,85,0.00,,,-99.99,,2013-06-01 05:32:00,
2013-06-01 00:42:00,70.0,65.0,-100.00,WNW,285,7.0,10.0,85,0.00,,,-99.99,,2013-06-01 05:42:00,
2013-06-01 00:52:00,69.0,65.0,-100.00,West,275,6.0,12.0,85,0.00,,,-99.99,,2013-06-01 05:52:00,
2013-06-01 01:01:00,69.0,65.0,-100.00,West,275,6.0,12.0,85,0.00,,,-99.99,,2013-06-01 06:01:00,
2013-06-01 01:12:00,69.0,64.0,-100.00,West,275,5.0,9.0,85,0.00,,,-99.99,,2013-06-01 06:12:00,
2013-06-01 01:22:00,69.0,64.0,-100.00,West,260,6.0,7.0,86,0.00,,,-99.99,,2013-06-01 06:22:00,
2013-06-01 01:32:00,69.0,64.0,-100.00,WSW,250,6.0,10.0,86,0.00,,,-99.99,,2013-06-01 06:32:00,
2013-06-01 01:42:00,69.0,64.0,-100.00,WSW,250,6.0,10.0,86,0.00,,,-99.99,,2013-06-01 06:42:00,
2013-06-01 01:52:00,69.0,65.0,-100.00,West,260,6.0,11.0,87,0.00,,,-99.99,,2013-06-01 06:52:00,
2013-06-01 02:01:00,69.0,65.0,-100.00,West,260,6.0,11.0,87,0.00,,,-99.99,,2013-06-01 07:01:00,
2013-06-01 02:11:00,69.0,65.0,-100.00,WSW,255,7.0,12.0,87,0.00,,,-99.99,,2013-06-01 07:11:00,
2013-06-01 02:22:00,68.0,64.0,-100.00,West,265,7.0,11.0,87,0.00,,,-99.99,,2013-06-01 07:22:00,
2013-06-01 02:31:00,68.0,64.0,-100.00,West,260,5.0,11.0,87,0.00,,,-99.99,,2013-06-01 07:31:00,
2013-06-01 02:42:00,68.0,64.0,-100.00,West,260,5.0,11.0,87,0.00,,,-99.99,,2013-06-01 07:42:00,
2013-06-01 02:52:00,68.0,64.0,-100.00,West,260,5.0,9.0,87,0.00,,,-99.99,,2013-06-01 07:52:00,
2013-06-01 03:02:00,68.0,64.0,-100.00,West,265,6.0,12.0,87,0.00,,,-99.99,,2013-06-01 08:02:00,
2013-06-01 03:11:00,68.0,64.0,-100.00,West,265,6.0,12.0,87,0.00,,,-99.99,,2013-06-01 08:11:00,
2013-06-01 03:21:00,68.0,64.0,-100.00,West,265,7.0,12.0,87,0.00,,,-99.99,,2013-06-01 08:21:00,
2013-06-01 03:32:00,68.0,64.0,-100.00,West,275,7.0,19.0,87,0.00,,,-99.99,,2013-06-01 08:32:00,
2013-06-01 03:42:00,68.0,64.0,-100.00,West,260,5.0,10.0,87,0.00,,,-99.99,,2013-06-01 08:42:00,
2013-06-01 03:52:00,68.0,64.0,-100.00,WSW,255,6.0,10.0,87,0.00,,,-99.99,,2013-06-01 08:52:00,
2013-06-01 04:01:00,68.0,64.0,-100.00,WSW,255,6.0,10.0,87,0.00,,,-99.99,,2013-06-01 09:01:00,
2013-06-01 04:12:00,67.0,63.0,-100.00,WSW,250,4.0,9.0,87,0.00,,,-99.99,,2013-06-01 09:12:00,
2013-06-01 04:21:00,67.0,63.0,-100.00,WSW,255,6.0,10.0,87,0.00,,,-99.99,,2013-06-01 09:21:00,
2013-06-01 04:33:00,67.0,63.0,-100.00,West,260,6.0,11.0,87,0.00,,,-99.99,,2013-06-01 09:33:00,
2013-06-01 04:42:00,67.0,63.0,-100.00,West,260,6.0,11.0,87,0.00,,,-99.99,,2013-06-01 09:42:00,
2013-06-01 04:53:00,67.0,63.0,-100.00,West,260,7.0,12.0,87,0.00,,,-99.99,,2013-06-01 09:53:00,
2013-06-01 05:02:00,67.0,63.0,-100.00,West,260,7.0,12.0,87,0.00,,,-99.99,,2013-06-01 10:02:00,
2013-06-01 05:13:00,66.0,62.0,-100.00,WSW,250,6.0,11.0,87,0.00,,,-99.99,,2013-06-01 10:13:00,
2013-06-01 05:22:00,66.0,62.0,-100.00,WSW,240,6.0,9.0,87,0.00,,,-99.99,,2013-06-01 10:22:00,
2013-06-01 05:33:00,66.0,62.0,-100.00,SW,220,4.0,9.0,87,0.00,,,-99.99,,2013-06-01 10:33:00,
2013-06-01 05:42:00,66.0,62.0,-100.00,SW,220,4.0,9.0,87,0.00,,,-99.99,,2013-06-01 10:42:00,
2013-06-01 05:52:00,66.0,62.0,-100.00,WSW,250,4.0,10.0,87,0.00,,,-99.99,,2013-06-01 10:52:00,
2013-06-01 06:02:00,65.0,62.0,-100.00,WSW,240,7.0,11.0,87,0.00,,,-99.99,,2013-06-01 11:02:00,
2013-06-01 06:11:00,65.0,61.0,-100.00,WSW,250,6.0,11.0,87,0.00,,,-99.99,,2013-06-01 11:11:00,
2013-06-01 06:21:00,65.0,61.0,-100.00,WSW,250,6.0,11.0,87,0.00,,,-99.99,,2013-06-01 11:21:00,
2013-06-01 06:32:00,65.0,61.0,-100.00,WSW,245,7.0,14.0,87,0.00,,,-99.99,,2013-06-01 11:32:00,
2013-06-01 06:42:00,65.0,61.0,-100.00,WSW,255,7.0,12.0,87,0.00,,,-99.99,,2013-06-01 11:42:00,
2013-06-01 06:52:00,65.0,61.0,-100.00,SW,235,4.0,10.0,87,0.00,,,-99.99,,2013-06-01 11:52:00,
2013-06-01 07:01:00,65.0,61.0,-100.00,SW,235,4.0,10.0,87,0.00,,,-99.99,,2013-06-01 12:01:00,
2013-06-01 07:12:00,65.0,61.0,-100.00,WSW,250,6.0,12.0,87,0.00,,,-99.99,,2013-06-01 12:12:00,
2013-06-01 07:21:00,65.0,61.0,-100.00,WSW,240,7.0,13.0,87,0.00,,,-99.99,,2013-06-01 12:21:00,
2013-06-01 07:32:00,65.0,61.0,-100.00,WSW,240,7.0,15.0,87,0.00,,,-99.99,,2013-06-01 12:32:00,
2013-06-01 07:42:00,66.0,62.0,-100.00,WSW,250,6.0,14.0,87,0.00,,,-99.99,,2013-06-01 12:42:00,
2013-06-01 07:52:00,66.0,62.0,-100.00,WSW,245,6.0,13.0,87,0.00,,,-99.99,,2013-06-01 12:52:00,
2013-06-01 08:01:00,66.0,62.0,-100.00,WSW,245,6.0,13.0,87,0.00,,,-99.99,,2013-06-01 13:01:00,
2013-06-01 08:11:00,66.0,62.0,-100.00,West,260,9.0,14.0,86,0.00,,,-99.99,,2013-06-01 13:11:00,
2013-06-01 08:22:00,67.0,63.0,-100.00,WSW,255,7.0,12.0,85,0.00,,,-99.99,,2013-06-01 13:22:00,
2013-06-01 08:32:00,67.0,62.0,-100.00,WSW,240,7.0,12.0,83,0.00,,,-99.99,,2013-06-01 13:32:00,
2013-06-01 08:42:00,67.0,62.0,-100.00,WSW,240,7.0,12.0,83,0.00,,,-99.99,,2013-06-01 13:42:00,
2013-06-01 08:52:00,67.0,62.0,-100.00,SW,225,6.0,14.0,82,0.00,,,-99.99,,2013-06-01 13:52:00,
2013-06-01 09:02:00,69.0,62.0,-100.00,SW,225,7.0,16.0,79,0.00,,,-99.99,,2013-06-01 14:02:00,
2013-06-01 09:11:00,70.0,62.0,-100.00,WSW,255,6.0,14.0,76,0.00,,,-99.99,,2013-06-01 14:11:00,
2013-06-01 09:21:00,70.0,62.0,-100.00,WSW,255,6.0,14.0,76,0.00,,,-99.99,,2013-06-01 14:21:00,
2013-06-01 09:32:00,69.0,61.0,-100.00,WSW,250,7.0,13.0,74,0.00,,,-99.99,,2013-06-01 14:32:00,
2013-06-01 09:42:00,69.0,61.0,-100.00,WSW,250,7.0,13.0,74,0.00,,,-99.99,,2013-06-01 14:42:00,
2013-06-01 09:52:00,71.0,62.0,-100.00,WSW,255,6.0,17.0,73,0.00,,,-99.99,,2013-06-01 14:52:00,
2013-06-01 10:02:00,71.0,62.0,-100.00,WSW,255,6.0,17.0,73,0.00,,,-99.99,,2013-06-01 15:02:00,
2013-06-01 10:11:00,72.0,62.0,-100.00,West,265,7.0,15.0,70,0.00,,,-99.99,,2013-06-01 15:11:00,
2013-06-01 10:21:00,73.0,62.0,-100.00,West,260,6.0,12.0,67,0.00,,,-99.99,,2013-06-01 15:21:00,
2013-06-01 10:33:00,71.0,61.0,-100.00,SW,235,4.0,16.0,68,0.00,,,-99.99,,2013-06-01 15:33:00,
2013-06-01 10:43:00,70.0,60.0,-100.00,WSW,245,7.0,15.0,72,0.00,,,-99.99,,2013-06-01 15:43:00,
2013-06-01 10:53:00,70.0,61.0,-100.00,SW,215,7.0,15.0,73,0.00,,,-99.99,,2013-06-01 15:53:00,
2013-06-01 11:03:00,70.0,61.0,-100.00,SW,215,7.0,15.0,73,0.00,,,-99.99,,2013-06-01 16:03:00,
2013-06-01 11:12:00,70.0,61.0,-100.00,SW,220,7.0,13.0,73,0.00,,,-99.99,,2013-06-01 16:12:00,
2013-06-01 11:23:00,70.0,61.0,-100.00,SW,220,7.0,13.0,73,0.00,,,-99.99,,2013-06-01 16:23:00,
2013-06-01 11:33:00,72.0,61.0,-100.00,West,260,9.0,14.0,69,0.00,,,-99.99,,2013-06-01 16:33:00,
2013-06-01 11:42:00,72.0,61.0,-100.00,West,260,9.0,14.0,69,0.00,,,-99.99,,2013-06-01 16:42:00,
2013-06-01 11:52:00,72.0,61.0,-100.00,WSW,245,6.0,16.0,67,0.00,,,-99.99,,2013-06-01 16:52:00,
2013-06-01 12:02:00,73.0,61.0,-100.00,WSW,245,5.0,14.0,65,0.00,,,-99.99,,2013-06-01 17:02:00,
2013-06-01 12:12:00,74.0,61.0,-100.00,WSW,255,9.0,14.0,64,0.00,,,-99.99,,2013-06-01 17:12:00,
2013-06-01 12:22:00,74.0,61.0,-100.00,WSW,255,9.0,14.0,64,0.00,,,-99.99,,2013-06-01 17:22:00,
2013-06-01 12:32:00,74.0,61.0,-100.00,WSW,255,10.0,17.0,62,0.00,,,-99.99,,2013-06-01 17:32:00,
2013-06-01 12:42:00,74.0,61.0,-100.00,WSW,255,10.0,17.0,62,0.00,,,-99.99,,2013-06-01 17:42:00,
2013-06-01 12:52:00,75.0,61.0,-100.00,WSW,255,7.0,16.0,61,0.00,,,-99.99,,2013-06-01 17:52:00,
2013-06-01 13:01:00,74.0,60.0,-100.00,West,260,4.0,14.0,62,0.00,,,-99.99,,2013-06-01 18:01:00,
2013-06-01 13:12:00,74.0,60.0,-100.00,West,260,4.0,14.0,62,0.00,,,-99.99,,2013-06-01 18:12:00,
2013-06-01 13:21:00,74.0,61.0,-100.00,West,265,7.0,14.0,64,0.00,,,-99.99,,2013-06-01 18:21:00,
2013-06-01 13:32:00,75.0,60.0,-100.00,West,260,7.0,14.0,60,0.00,,,-99.99,,2013-06-01 18:32:00,
2013-06-01 13:42:00,77.0,57.0,-100.00,West,275,10.0,16.0,50,0.00,,,-99.99,,2013-06-01 18:42:00,
2013-06-01 13:52:00,77.0,57.0,-100.00,WNW,285,12.0,19.0,49,0.00,,,-99.99,,2013-06-01 18:52:00,
2013-06-01 14:02:00,77.0,57.0,-100.00,WNW,285,12.0,19.0,49,0.00,,,-99.99,,2013-06-01 19:02:00,
2013-06-01 14:11:00,77.0,56.0,-100.00,West,280,13.0,19.0,48,0.00,,,-99.99,,2013-06-01 19:11:00,
2013-06-01 14:21:00,77.0,54.0,-100.00,WNW,290,9.0,17.0,45,0.00,,,-99.99,,2013-06-01 19:21:00,
2013-06-01 14:32:00,77.0,54.0,-100.00,WNW,300,10.0,19.0,44,0.00,,,-99.99,,2013-06-01 19:32:00,
2013-06-01 14:42:00,77.0,54.0,-100.00,WNW,300,10.0,19.0,44,0.00,,,-99.99,,2013-06-01 19:42:00,
2013-06-01 14:52:00,77.0,52.0,-100.00,WNW,300,16.0,22.0,41,0.00,,,-99.99,,2013-06-01 19:52:00,
2013-06-01 15:01:00,77.0,52.0,-100.00,WNW,300,16.0,22.0,41,0.00,,,-99.99,,2013-06-01 20:01:00,
2013-06-01 15:12:00,76.0,52.0,-100.00,WNW,290,7.0,19.0,42,0.00,,,-99.99,,2013-06-01 20:12:00,
2013-06-01 15:21:00,77.0,51.0,-100.00,NW,305,14.0,21.0,41,0.00,,,-99.99,,2013-06-01 20:21:00,
2013-06-01 15:32:00,76.0,51.0,-100.00,NW,305,15.0,21.0,40,0.00,,,-99.99,,2013-06-01 20:32:00,
2013-06-01 15:41:00,76.0,51.0,-100.00,NW,305,15.0,21.0,40,0.00,,,-99.99,,2013-06-01 20:41:00,
2013-06-01 15:52:00,76.0,51.0,-100.00,NW,315,12.0,26.0,40,0.00,,,-99.99,,2013-06-01 20:52:00,
2013-06-01 16:01:00,75.0,50.0,-100.00,NW,310,17.0,22.0,41,0.00,,,-99.99,,2013-06-01 21:01:00,
2013-06-01 16:11:00,75.0,50.0,-100.00,NW,310,17.0,22.0,41,0.00,,,-99.99,,2013-06-01 21:11:00,
2013-06-01 16:21:00,74.0,51.0,-100.00,NW,315,16.0,24.0,44,0.00,,,-99.99,,2013-06-01 21:21:00,
2013-06-01 16:33:00,73.0,50.0,-100.00,NW,310,17.0,24.0,45,0.00,,,-99.99,,2013-06-01 21:33:00,
2013-06-01 16:42:00,73.0,51.0,-100.00,WNW,300,19.0,26.0,45,0.00,,,-99.99,,2013-06-01 21:42:00,
2013-06-01 16:53:00,72.0,52.0,-100.00,NW,310,20.0,29.0,48,0.00,,,-99.99,,2013-06-01 21:53:00,
2013-06-01 17:03:00,72.0,52.0,-100.00,NW,310,20.0,29.0,48,0.00,,,-99.99,,2013-06-01 22:03:00,
2013-06-01 17:12:00,72.0,52.0,-100.00,NW,305,19.0,26.0,48,0.00,,,-99.99,,2013-06-01 22:12:00,
2013-06-01 17:23:00,73.0,51.0,-100.00,WNW,300,19.0,27.0,46,0.00,,,-99.99,,2013-06-01 22:23:00,
2013-06-01 17:33:00,72.0,52.0,-100.00,NW,305,12.0,27.0,48,0.00,,,-99.99,,2013-06-01 22:33:00,
2013-06-01 17:42:00,72.0,52.0,-100.00,NW,305,12.0,27.0,48,0.00,,,-99.99,,2013-06-01 22:42:00,
2013-06-01 17:53:00,70.0,52.0,-100.00,NW,310,14.0,22.0,53,0.00,,,-99.99,,2013-06-01 22:53:00,
2013-06-01 18:02:00,70.0,52.0,-100.00,NW,310,14.0,22.0,53,0.00,,,-99.99,,2013-06-01 23:02:00,
2013-06-01 18:11:00,71.0,53.0,-100.00,NNW,330,16.0,22.0,54,0.00,,,-99.99,,2013-06-01 23:11:00,
2013-06-01 18:22:00,71.0,53.0,-100.00,NW,310,12.0,22.0,52,0.00,,,-99.99,,2013-06-01 23:22:00,
2013-06-01 18:32:00,71.0,53.0,-100.00,NW,325,14.0,22.0,52,0.00,,,-99.99,,2013-06-01 23:32:00,
2013-06-01 18:42:00,71.0,53.0,-100.00,NW,325,14.0,22.0,52,0.00,,,-99.99,,2013-06-01 23:42:00,
2013-06-01 18:52:00,70.0,53.0,-100.00,NW,310,16.0,26.0,54,0.00,,,-99.99,,2013-06-01 23:52:00,
2013-06-01 19:02:00,68.0,53.0,-100.00,NW,315,18.0,29.0,60,0.00,,,-99.99,,2013-06-02 00:02:00,
2013-06-01 19:11:00,67.0,53.0,-100.00,NW,310,17.0,25.0,60,0.00,,,-99.99,,2013-06-02 00:11:00,
2013-06-01 19:21:00,67.0,54.0,-100.00,NW,305,16.0,26.0,62,0.00,,,-99.99,,2013-06-02 00:21:00,
2013-06-01 19:32:00,69.0,55.0,-100.00,NW,310,13.0,23.0,62,0.00,,,-99.99,,2013-06-02 00:32:00,
2013-06-01 19:42:00,68.0,55.0,-100.00,NW,310,17.0,23.0,63,0.00,,,-99.99,,2013-06-02 00:42:00,
2013-06-01 19:51:00,68.0,55.0,-100.00,NW,310,12.0,21.0,64,0.00,,,-99.99,,2013-06-02 00:51:00,
2013-06-01 20:01:00,68.0,55.0,-100.00,NW,310,12.0,21.0,64,0.00,,,-99.99,,2013-06-02 01:01:00,
2013-06-01 20:11:00,67.0,56.0,-100.00,NW,310,12.0,22.0,67,0.00,,,-99.99,,2013-06-02 01:11:00,
2013-06-01 20:21:00,66.0,55.0,-100.00,NW,305,15.0,20.0,67,0.00,,,-99.99,,2013-06-02 01:21:00,
2013-06-01 20:32:00,66.0,56.0,-100.00,NW,305,11.0,16.0,69,0.00,,,-99.99,,2013-06-02 01:32:00,
2013-06-01 20:42:00,66.0,56.0,-100.00,WNW,295,12.0,16.0,70,0.00,,,-99.99,,2013-06-02 01:42:00,
2013-06-01 20:52:00,66.0,56.0,-100.00,WNW,300,10.0,15.0,70,0.00,,,-99.99,,2013-06-02 01:52:00,
2013-06-01 21:01:00,66.0,56.0,-100.00,WNW,300,10.0,15.0,70,0.00,,,-99.99,,2013-06-02 02:01:00,
2013-06-01 21:12:00,66.0,56.0,-100.00,WNW,300,9.0,13.0,70,0.00,,,-99.99,,2013-06-02 02:12:00,
2013-06-01 21:21:00,65.0,56.0,-100.00,WNW,295,9.0,12.0,72,0.00,,,-99.99,,2013-06-02 02:21:00,
2013-06-01 21:32:00,65.0,56.0,-100.00,WNW,300,9.0,13.0,73,0.00,,,-99.99,,2013-06-02 02:32:00,
2013-06-01 21:41:00,65.0,56.0,-100.00,WNW,300,9.0,13.0,73,0.00,,,-99.99,,2013-06-02 02:41:00,
2013-06-01 21:51:00,65.0,56.0,-100.00,WNW,285,9.0,14.0,74,0.00,,,-99.99,,2013-06-02 02:51:00,
2013-06-01 22:02:00,65.0,57.0,-100.00,WNW,285,8.0,12.0,75,0.00,,,-99.99,,2013-06-02 03:02:00,
2013-06-01 22:11:00,65.0,57.0,-100.00,WNW,295,9.0,13.0,77,0.00,,,-99.99,,2013-06-02 03:11:00,
2013-06-01 22:21:00,65.0,57.0,-100.00,WNW,295,9.0,13.0,77,0.00,,,-99.99,,2013-06-02 03:21:00,
2013-06-01 22:33:00,64.0,57.0,-100.00,WNW,285,9.0,14.0,77,0.00,,,-99.99,,2013-06-02 03:33:00,
2013-06-01 22:43:00,64.0,57.0,-100.00,WNW,290,9.0,11.0,78,0.00,,,-99.99,,2013-06-02 03:43:00,
2013-06-01 22:52:00,64.0,57.0,-100.00,WNW,295,9.0,12.0,79,0.00,,,-99.99,,2013-06-02 03:52:00,
2013-06-01 23:02:00,64.0,57.0,-100.00,WNW,295,9.0,12.0,79,0.00,,,-99.99,,2013-06-02 04:02:00,
2013-06-01 23:13:00,63.0,57.0,-100.00,NW,305,13.0,17.0,79,0.00,,,-99.99,,2013-06-02 04:13:00,
2013-06-01 23:23:00,63.0,57.0,-100.00,NW,305,12.0,16.0,79,0.00,,,-99.99,,2013-06-02 04:23:00,
2013-06-01 23:33:00,63.0,57.0,-100.00,WNW,300,12.0,15.0,81,0.00,,,-99.99,,2013-06-02 04:33:00,
2013-06-01 23:42:00,63.0,57.0,-100.00,WNW,300,12.0,16.0,82,0.00,,,-99.99,,2013-06-02 04:42:00,
2013-06-01 23:52:00,63.0,57.0,-100.00,NW,305,13.0,16.0,83,0.00,,,-99.99,,2013-06-02 04:52:00,